sat.trackr.live / text

‹ back to catalog

STARLINK-35550

NORAD 66267 · 2025-247C

PAYLOAD ACTIVE UNKNOWN

§ Identity

Operator
Country
US
Launch date
2025-10-31
Launch site
AFWTR
Launch vehicle
Mass (kg)
RCS (m²)

Purposes: comms

External: N2YO · Heavens-Above · Gunter

§ Orbital elements

Epoch: 2026-05-25T03:11:31.067808Z

Period
93.85 min
Inclination
53.1593°
Eccentricity
0.0001217
Mean motion
15.34405757 rev/d
Perigee alt
461.9 km
Apogee alt
463.5 km
Semi-major
6,840.8 km
B*
6.7892e-4
RAAN
195.1862°
Arg perigee
60.3865°
Mean anomaly
299.7259°
Rev number
3,275

§ Raw data

STARLINK-355501 66267U 25247C   26145.13299847  .00022636  00000+0  67892-3 0  99912 66267  53.1593 195.1862 0001217  60.3865 299.7259 15.34405757 32757

JSON: /api/v1/satellites/66267 · /tle

For live sub-satellite position, see the globe view (requires WebGL).

§ Visibility from observer

Set your observer location to see the next 7 days of passes ≥ 10°. The values pass through the URL so the page stays shareable.

No JS? Fill the form by hand. The geolocation button needs JavaScript.